Weather History for Christchurch, New Zealand

Change the Weather History Date:

Wednesday, October 30, 2013

  Actual Average Record
Temperature  
Mean Temperature 50 °F -  
Max Temperature 64 °F 62 °F - ()
Min Temperature 37 °F 43 °F - ()
Degree Days  
Heating Degree Days 14    
Moisture  
Dew Point 45 °F    
Average Humidity 75    
Maximum Humidity 100    
Minimum Humidity 49    
Precipitation  
Precipitation 0.00 in - - ()
Sea Level Pressure  
Sea Level Pressure 29.81 in    
Wind  
Wind Speed 6 mph ()    
Max Wind Speed 18 mph    
Max Gust Speed 18 mph    
Visibility 5.9 miles    
Events Fog , Rain    
T = Trace of Precipitation, MM = Missing Value Source: Averaged Metar Reports

Daily Weather History Graph

Daily Weather History Graph

Search for Another Location

Airport:

Trip Planner

Search our weather history database for the weather conditions in past years. The results will help you decide how hot, cold, wet, or windy it might be!

Date:

Astronomy

Oct. 30, 2013 Rise Set
Actual Time 6:15 AM NZDT 8:12 PM NZDT
Civil Twilight 5:44 AM NZDT 8:43 PM NZDT
Nautical Twilight 5:06 AM NZDT 9:21 PM NZDT
Astronomical Twilight 4:25 AM NZDT 10:02 PM NZDT
Moon 3:40 AM NZDT (10/30) 3:29 PM NZDT (10/30)
Length of Visible Light 14h 58m
Length of Day
13h 57m
Waning Crescent, 23% of the Moon is Illuminated
Oct 30
Waning Crescent
Nov 4
New
Nov 10
First Quarter
Nov 18
Full
Nov 26
Last Quarter

Hourly Weather History & Observations

Time (NZDT) Temp. Windchill Dew Point Humidity Pressure Visibility Wind Dir Wind Speed Gust Speed Precip Events Conditions
12:00 AM 50.0 °F - 46.4 °F 87% 29.86 in 6.2 mi ESE 3.5 mph - N/A   Unknown
12:30 AM 48.2 °F - 46.4 °F 93% 29.86 in 6.2 mi ENE 2.3 mph - N/A   Unknown
1:00 AM 48.2 °F - 46.4 °F 93% 29.86 in 6.2 mi North 1.2 mph - N/A   Unknown
1:30 AM 44.6 °F 43.1 °F 44.6 °F 100% 29.83 in 6.2 mi NW 3.5 mph - N/A   Unknown
2:00 AM 42.8 °F 40.1 °F 41.0 °F 93% 29.83 in 5.6 mi NW 4.6 mph - N/A   Unknown
2:30 AM 42.8 °F 41.1 °F 42.8 °F 100% 29.83 in 3.7 mi NW 3.5 mph - N/A   Unknown
3:00 AM 42.8 °F - 42.8 °F 100% 29.83 in 0.6 mi NW 2.3 mph - N/A Fog Patches of Fog
3:30 AM 37.4 °F - 37.4 °F 100% 29.83 in 0.2 mi West 2.3 mph - N/A Fog Fog
5:00 AM 37.4 °F 33.8 °F 37.4 °F 100% 29.83 in 6.2 mi South 4.6 mph - N/A   Unknown
5:30 AM 39.2 °F 35.0 °F 39.2 °F 100% 29.83 in 6.2 mi SW 5.8 mph - N/A   Unknown
6:00 AM 44.6 °F 40.2 °F 35.6 °F 71% 29.83 in 6.2 mi West 8.1 mph - N/A   Unknown
6:30 AM 48.2 °F - 33.8 °F 58% 29.83 in 6.2 mi West 8.1 mph - N/A   Unknown
7:00 AM 48.2 °F - 35.6 °F 62% 29.86 in 6.2 mi West 8.1 mph - N/A   Unknown
7:30 AM 50.0 °F - 35.6 °F 58% 29.86 in 6.2 mi West 8.1 mph - N/A   Unknown
8:00 AM 51.8 °F - 37.4 °F 58% 29.86 in 6.2 mi West 8.1 mph - N/A   Unknown
8:30 AM 55.4 °F - 37.4 °F 51% 29.89 in 6.2 mi WSW 6.9 mph - N/A   Unknown
9:00 AM 57.2 °F - 42.8 °F 59% 29.86 in 6.2 mi SW 11.5 mph - N/A   Unknown
9:30 AM 57.2 °F - 42.8 °F 59% 29.89 in 6.2 mi SW 11.5 mph - N/A   Unknown
10:00 AM 59.0 °F - 46.4 °F 63% 29.89 in 6.2 mi SW 11.5 mph - N/A   Unknown
10:30 AM 59.0 °F - 44.6 °F 59% 29.89 in 6.2 mi SW 10.4 mph - N/A   Unknown
11:00 AM 59.0 °F - 44.6 °F 59% 29.86 in 6.2 mi SW 10.4 mph - N/A   Unknown
11:30 AM 59.0 °F - 44.6 °F 59% 29.86 in 6.2 mi SW 9.2 mph - N/A   Unknown
12:00 PM 60.8 °F - 44.6 °F 55% 29.86 in 6.2 mi SSW 8.1 mph - N/A   Unknown
12:30 PM 60.8 °F - 46.4 °F 59% 29.86 in 6.2 mi SSW 8.1 mph - N/A   Unknown
1:00 PM 62.6 °F - 46.4 °F 55% 29.83 in 6.2 mi South 5.8 mph - N/A   Unknown
1:30 PM 64.4 °F - 46.4 °F 52% 29.83 in 6.2 mi South 5.8 mph - N/A   Unknown
2:00 PM 62.6 °F - 44.6 °F 52% 29.80 in 6.2 mi SSE 5.8 mph - N/A   Unknown
2:30 PM 64.4 °F - 44.6 °F 49% 29.80 in 6.2 mi ESE 4.6 mph - N/A   Unknown
3:00 PM 64.4 °F - 46.4 °F 52% 29.77 in 6.2 mi South 5.8 mph - N/A   Unknown
3:30 PM 64.4 °F - 48.2 °F 56% 29.77 in 6.2 mi East 5.8 mph 18.4 mph N/A   Unknown
4:00 PM 62.6 °F - 46.4 °F 55% 29.77 in 6.2 mi NE 12.7 mph - N/A   Unknown
4:30 PM 60.8 °F - 51.8 °F 72% 29.77 in 6.2 mi ENE 17.3 mph - N/A   Unknown
5:00 PM 59.0 °F - 51.8 °F 77% 29.77 in 6.2 mi ENE 18.4 mph - N/A   Partly Cloudy
5:30 PM 57.2 °F - 50.0 °F 77% 29.77 in 6.2 mi ENE 16.1 mph - N/A   Unknown
6:00 PM 57.2 °F - 48.2 °F 72% 29.74 in 6.2 mi ENE 15.0 mph - N/A   Unknown
6:30 PM 55.4 °F - 48.2 °F 77% 29.77 in 6.2 mi East 13.8 mph - N/A   Mostly Cloudy
7:00 PM 55.4 °F - 48.2 °F 77% 29.74 in 6.2 mi East 13.8 mph - N/A   Light Drizzle
7:30 PM 55.4 °F - 51.8 °F 88% 29.74 in 6.2 mi East 12.7 mph - N/A Rain Light Rain Showers
8:00 PM 55.4 °F - 50.0 °F 82% 29.74 in 6.2 mi East 13.8 mph - N/A Rain Light Rain
8:30 PM 53.6 °F - 50.0 °F 88% 29.74 in 6.2 mi East 10.4 mph - N/A Rain Light Rain Showers
9:00 PM 53.6 °F - 50.0 °F 88% 29.74 in 6.2 mi ENE 9.2 mph - N/A Rain Light Rain Showers
9:30 PM 53.6 °F - 50.0 °F 88% 29.74 in 6.2 mi NE 6.9 mph - N/A Rain Light Rain
10:00 PM 51.8 °F - 50.0 °F 94% 29.74 in 6.2 mi NE 6.9 mph - N/A Rain Light Rain
10:30 PM 51.8 °F - 50.0 °F 94% 29.71 in 6.2 mi NE 9.2 mph - N/A Rain Light Rain
11:00 PM 51.8 °F - 50.0 °F 94% 29.71 in 6.2 mi NE 9.2 mph - N/A Rain Light Rain Showers
11:30 PM 51.8 °F - 50.0 °F 94% 29.68 in 6.2 mi ENE 6.9 mph - N/A   Overcast